| time (UTC) | temp C | wind direction | speed KPH | gust KPH | rain 1hr cm | rain 24hr cm | rain mn cm | humidity % | barometer mb |
| 20260506135411 | 13 | 67 | 4.8 | 16.1 | 0.00 | 0.00 | 0.00 | 53 | 1009.6 |
| 20260506134411 | 14 | 67 | 4.8 | 19.3 | 0.00 | 0.00 | 0.00 | 52 | 1009.6 |
| 20260506133410 | 14 | 45 | 6.4 | 16.1 | 0.00 | 0.00 | 0.00 | 51 | 1009.6 |
| 20260506132410 | 14 | 315 | 1.6 | 20.9 | 0.00 | 0.00 | 0.00 | 47 | 1009.6 |
| 20260506131415 | 14 | 45 | 9.7 | 25.7 | 0.00 | 0.00 | 0.00 | 46 | 1009.6 |
| 20260506125414 | 14 | 67 | 9.7 | 27.4 | 0.00 | 0.00 | 0.00 | 44 | 1009.3 |
| 20260506124414 | 15 | 45 | 11.3 | 25.7 | 0.00 | 0.00 | 0.00 | 43 | 1009.2 |
| 20260506123413 | 15 | 67 | 9.7 | 16.1 | 0.00 | 0.00 | 0.00 | 45 | 1009.2 |
| 20260506121413 | 14 | 67 | 11.3 | 17.7 | 0.00 | 0.00 | 0.00 | 45 | 1009.1 |
| 20260506120412 | 14 | 67 | 1.6 | 9.7 | 0.00 | 0.00 | 0.00 | 46 | 1009.1 |
| 20260506115412 | 14 | 360 | 4.8 | 25.7 | 0.00 | 0.00 | 0.00 | 44 | 1009.1 |
| 20260506114412 | 14 | 22 | 4.8 | 20.9 | 0.00 | 0.00 | 0.00 | 45 | 1009.1 |
| 20260506113411 | 14 | 315 | 4.8 | 19.3 | 0.00 | 0.00 | 0.00 | 44 | 1009.1 |
| 20260506112411 | 14 | 67 | 9.7 | 20.9 | 0.00 | 0.00 | 0.00 | 46 | 1009.1 |
| 20260506111411 | 14 | 45 | 1.6 | 14.5 | 0.00 | 0.00 | 0.00 | 46 | 1009.0 |
| 20260506110410 | 13 | 337 | 11.3 | 20.9 | 0.00 | 0.00 | 0.00 | 47 | 1009.0 |
| 20260506105413 | 13 | 45 | 0.0 | 27.4 | 0.00 | 0.00 | 0.00 | 51 | 1009.1 |
| 20260506104415 | 13 | 337 | 6.4 | 17.7 | 0.00 | 0.00 | 0.00 | 48 | 1009.1 |
| 20260506103414 | 13 | 45 | 6.4 | 14.5 | 0.00 | 0.00 | 0.00 | 49 | 1009.1 |
| 20260506101417 | 13 | 337 | 3.2 | 20.9 | 0.00 | 0.00 | 0.00 | 49 | 1009.1 |
| 20260506100413 | 13 | 360 | 1.6 | 17.7 | 0.00 | 0.00 | 0.00 | 50 | 1009.1 |
| 20260506095413 | 13 | 45 | 3.2 | 20.9 | 0.00 | 0.00 | 0.00 | 49 | 1009.2 |
| 20260506094413 | 13 | 67 | 9.7 | 20.9 | 0.00 | 0.00 | 0.00 | 50 | 1009.2 |
| 20260506093413 | 13 | 67 | 3.2 | 22.5 | 0.00 | 0.00 | 0.00 | 49 | 1009.2 |
| 20260506092412 | 12 | 45 | 3.2 | 17.7 | 0.00 | 0.00 | 0.00 | 50 | 1009.2 |
| 20260506091412 | 12 | 67 | 1.6 | 19.3 | 0.00 | 0.00 | 0.00 | 51 | 1009.2 |
| 20260506090412 | 12 | 45 | 3.2 | 14.5 | 0.00 | 0.00 | 0.00 | 52 | 1009.2 |
| 20260506085411 | 12 | 67 | 6.4 | 20.9 | 0.00 | 0.00 | 0.00 | 54 | 1009.2 |
| 20260506084411 | 12 | 67 | 9.7 | 14.5 | 0.00 | 0.00 | 0.00 | 55 | 1009.1 |
| 20260506083411 | 12 | 315 | 6.4 | 17.7 | 0.00 | 0.00 | 0.00 | 54 | 1009.1 |
| 20260506082411 | 12 | 45 | 6.4 | 12.9 | 0.00 | 0.00 | 0.00 | 58 | 1009.1 |
| 20260506081410 | 11 | 337 | 3.2 | 25.7 | 0.00 | 0.00 | 0.00 | 56 | 1009.1 |
| 20260506080410 | 11 | 45 | 4.8 | 19.3 | 0.00 | 0.00 | 0.00 | 59 | 1009.1 |
| 20260506073414 | 11 | 67 | 3.2 | 12.9 | 0.00 | 0.00 | 0.00 | 61 | 1009.2 |
| 20260506072413 | 10 | 45 | 1.6 | 16.1 | 0.00 | 0.00 | 0.00 | 63 | 1009.2 |
| 20260506071413 | 10 | 67 | 4.8 | 20.9 | 0.00 | 0.00 | 0.00 | 63 | 1009.1 |
| 20260506062411 | 9 | 67 | 1.6 | 9.7 | 0.00 | 0.00 | 0.00 | 74 | 1009.4 |
| 20260506061411 | 9 | 22 | 6.4 | 14.5 | 0.00 | 0.00 | 0.00 | 73 | 1009.3 |
| 20260506060411 | 8 | 67 | 3.2 | 12.9 | 0.00 | 0.00 | 0.00 | 76 | 1009.3 |
| 20260506051414 | 6 | 0 | 0.0 | 3.2 | 0.00 | 0.00 | 0.00 | 84 | 1009.3 |
| 20260506050414 | 6 | 0 | 0.0 | 3.2 | 0.00 | 0.00 | 0.00 | 85 | 1009.3 |
| 20260506044413 | 5 | 360 | 0.0 | 3.2 | 0.00 | 0.00 | 0.00 | 85 | 1009.2 |
| 20260506043416 | 5 | 0 | 0.0 | 1.6 | 0.00 | 0.00 | 0.00 | 86 | 1009.2 |
| 20260506042412 | 5 | 0 | 0.0 | 0.0 | 0.00 | 0.00 | 0.00 | 87 | 1009.2 |
| 20260506041412 | 5 | 0 | 0.0 | 6.4 | 0.00 | 0.00 | 0.00 | 89 | 1009.3 |
| 20260506040412 | 5 | 0 | 0.0 | 0.0 | 0.00 | 0.00 | 0.00 | 92 | 1009.3 |
| 20260506034411 | 4 | 0 | 0.0 | 0.0 | 0.00 | 0.00 | 0.00 | 94 | 1009.4 |
| 20260506032410 | 5 | 0 | 0.0 | 0.0 | 0.00 | 0.00 | 0.00 | 94 | 1009.5 |
| 20260506031410 | 5 | 0 | 0.0 | 0.0 | 0.00 | 0.00 | 0.00 | 94 | 1009.6 |
| 20260506030410 | 5 | 0 | 0.0 | 0.0 | 0.00 | 0.00 | 0.00 | 94 | 1009.6 |
| 20260506025414 | 5 | 0 | 0.0 | 0.0 | 0.00 | 0.00 | 0.00 | 94 | 1009.6 |
| 20260506024414 | 5 | 0 | 0.0 | 1.6 | 0.00 | 0.00 | 0.00 | 95 | 1009.8 |
| 20260506023414 | 5 | 0 | 0.0 | 0.0 | 0.00 | 0.00 | 0.00 | 94 | 1009.8 |
| 20260506022413 | 5 | 0 | 0.0 | 0.0 | 0.00 | 0.00 | 0.00 | 95 | 1009.7 |
| 20260506021416 | 5 | 0 | 0.0 | 0.0 | 0.00 | 0.00 | 0.00 | 94 | 1009.9 |
| 20260506020413 | 5 | 0 | 0.0 | 0.0 | 0.00 | 0.00 | 0.00 | 94 | 1009.9 |
| 20260506014412 | 5 | 0 | 0.0 | 0.0 | 0.00 | 0.00 | 0.00 | 94 | 1010.1 |
| 20260506013412 | 5 | 0 | 0.0 | 0.0 | 0.00 | 0.00 | 0.00 | 94 | 1010.1 |
| 20260506012412 | 5 | 0 | 0.0 | 3.2 | 0.00 | 0.00 | 0.00 | 94 | 1010.1 |
| 20260506011411 | 5 | 0 | 0.0 | 0.0 | 0.00 | 0.00 | 0.00 | 94 | 1010.1 |
| 20260506010411 | 5 | 0 | 0.0 | 0.0 | 0.00 | 0.00 | 0.00 | 93 | 1010.1 |
| 20260506005410 | 5 | 0 | 0.0 | 0.0 | 0.00 | 0.00 | 0.00 | 93 | 1010.1 |
| 20260506004410 | 5 | 0 | 0.0 | 1.6 | 0.00 | 0.00 | 0.00 | 93 | 1010.1 |
| 20260506003415 | 5 | 67 | 0.0 | 3.2 | 0.00 | 0.00 | 0.00 | 93 | 1010.1 |
| 20260506002414 | 5 | 0 | 0.0 | 0.0 | 0.00 | 0.00 | 0.00 | 92 | 1010.1 |
| 20260506000416 | 5 | 0 | 0.0 | 0.0 | 0.00 | 0.00 | 0.00 | 92 | 1010.2 |
| 20260505235413 | 6 | 0 | 0.0 | 0.0 | 0.00 | 0.00 | 0.00 | 91 | 1010.3 |
| 20260505234413 | 6 | 0 | 0.0 | 0.0 | 0.00 | 0.00 | 0.00 | 91 | 1010.4 |
| 20260505233413 | 6 | 0 | 0.0 | 0.0 | 0.00 | 0.00 | 0.00 | 91 | 1010.4 |
| 20260505232412 | 6 | 0 | 0.0 | 0.0 | 0.00 | 0.00 | 0.00 | 90 | 1010.5 |
| 20260505231412 | 6 | 0 | 0.0 | 0.0 | 0.00 | 0.00 | 0.00 | 90 | 1010.6 |
| 20260505230411 | 6 | 0 | 0.0 | 0.0 | 0.00 | 0.00 | 0.00 | 90 | 1010.6 |
| 20260505225411 | 6 | 0 | 0.0 | 0.0 | 0.00 | 0.00 | 0.00 | 89 | 1010.6 |
| 20260505224411 | 6 | 0 | 0.0 | 0.0 | 0.00 | 0.00 | 0.00 | 89 | 1010.6 |
| 20260505223411 | 6 | 0 | 0.0 | 0.0 | 0.00 | 0.00 | 0.00 | 89 | 1010.6 |
| 20260505222410 | 6 | 0 | 0.0 | 0.0 | 0.00 | 0.00 | 0.00 | 88 | 1010.6 |
| 20260505221410 | 7 | 0 | 0.0 | 0.0 | 0.00 | 0.00 | 0.00 | 88 | 1010.6 |
| 20260505220415 | 7 | 0 | 0.0 | 0.0 | 0.00 | 0.00 | 0.00 | 87 | 1010.6 |
| 20260505215414 | 7 | 0 | 0.0 | 0.0 | 0.00 | 0.00 | 0.00 | 87 | 1010.6 |
| 20260505214414 | 7 | 0 | 0.0 | 0.0 | 0.00 | 0.00 | 0.00 | 86 | 1010.7 |
| 20260505213414 | 7 | 0 | 0.0 | 0.0 | 0.00 | 0.00 | 0.00 | 85 | 1010.7 |
| 20260505212413 | 7 | 0 | 0.0 | 0.0 | 0.00 | 0.00 | 0.00 | 85 | 1010.7 |
| 20260505211413 | 7 | 0 | 0.0 | 0.0 | 0.00 | 0.00 | 0.00 | 84 | 1010.7 |
| 20260505210413 | 7 | 0 | 0.0 | 0.0 | 0.00 | 0.00 | 0.00 | 83 | 1010.7 |
| 20260505205413 | 8 | 0 | 0.0 | 0.0 | 0.00 | 0.00 | 0.00 | 83 | 1010.9 |
| 20260505204412 | 8 | 0 | 0.0 | 0.0 | 0.00 | 0.00 | 0.00 | 82 | 1010.9 |
| 20260505203412 | 8 | 0 | 0.0 | 0.0 | 0.00 | 0.00 | 0.00 | 81 | 1010.9 |
| 20260505202411 | 8 | 0 | 0.0 | 3.2 | 0.00 | 0.00 | 0.00 | 80 | 1010.9 |
| 20260505200410 | 9 | 67 | 0.0 | 6.4 | 0.00 | 0.00 | 0.00 | 77 | 1010.8 |
| 20260505195410 | 9 | 45 | 4.8 | 9.7 | 0.00 | 0.00 | 0.00 | 76 | 1010.7 |
| 20260505193417 | 10 | 45 | 3.2 | 6.4 | 0.00 | 0.00 | 0.00 | 74 | 1010.7 |
| 20260505192414 | 10 | 67 | 3.2 | 12.9 | 0.00 | 0.00 | 0.00 | 74 | 1010.6 |
| 20260505191414 | 10 | 67 | 1.6 | 6.4 | 0.00 | 0.00 | 0.00 | 73 | 1010.6 |
| 20260505190413 | 11 | 45 | 4.8 | 11.3 | 0.00 | 0.00 | 0.00 | 71 | 1010.6 |
| 20260505185413 | 11 | 45 | 3.2 | 12.9 | 0.00 | 0.00 | 0.00 | 71 | 1010.5 |
| 20260505184413 | 11 | 67 | 1.6 | 9.7 | 0.00 | 0.00 | 0.00 | 69 | 1010.5 |
| 20260505183412 | 11 | 67 | 1.6 | 6.4 | 0.00 | 0.00 | 0.00 | 67 | 1010.5 |
| 20260505182412 | 12 | 45 | 4.8 | 11.3 | 0.00 | 0.00 | 0.00 | 65 | 1010.3 |
| 20260505181412 | 12 | 67 | 6.4 | 14.5 | 0.00 | 0.00 | 0.00 | 63 | 1010.1 |
| 20260505175411 | 12 | 67 | 1.6 | 6.4 | 0.00 | 0.00 | 0.00 | 62 | 1010.3 |
| 20260505174411 | 12 | 45 | 3.2 | 11.3 | 0.00 | 0.00 | 0.00 | 62 | 1010.5 |
| 20260505173410 | 12 | 67 | 1.6 | 6.4 | 0.00 | 0.00 | 0.00 | 63 | 1010.5 |
| 20260505172410 | 12 | 67 | 0.0 | 6.4 | 0.00 | 0.00 | 0.00 | 62 | 1010.6 |
| 20260505171410 | 12 | 22 | 4.8 | 12.9 | 0.00 | 0.00 | 0.00 | 60 | 1010.6 |
| 20260505170414 | 13 | 360 | 3.2 | 11.3 | 0.00 | 0.00 | 0.00 | 62 | 1010.6 |
| 20260505165414 | 13 | 337 | 0.0 | 11.3 | 0.00 | 0.00 | 0.00 | 61 | 1010.4 |
| 20260505164414 | 13 | 67 | 3.2 | 12.9 | 0.00 | 0.00 | 0.00 | 60 | 1010.6 |
| 20260505163414 | 13 | 337 | 6.4 | 11.3 | 0.00 | 0.00 | 0.00 | 58 | 1010.6 |
| 20260505162413 | 13 | 337 | 1.6 | 11.3 | 0.00 | 0.00 | 0.00 | 58 | 1010.6 |
| 20260505161413 | 13 | 337 | 4.8 | 14.5 | 0.00 | 0.00 | 0.00 | 58 | 1010.7 |
| 20260505160412 | 13 | 337 | 3.2 | 11.3 | 0.00 | 0.00 | 0.00 | 59 | 1010.7 |
| 20260505152411 | 13 | 67 | 4.8 | 9.7 | 0.00 | 0.00 | 0.00 | 64 | 1011.0 |
| 20260505151411 | 13 | 90 | 6.4 | 9.7 | 0.00 | 0.00 | 0.00 | 64 | 1011.1 |
| 20260505150410 | 13 | 67 | 3.2 | 12.9 | 0.00 | 0.00 | 0.00 | 66 | 1011.1 |
| 20260505140413 | 13 | 337 | 6.4 | 12.9 | 0.00 | 0.00 | 0.00 | 67 | 1011.3 |